Terug naar catalogus

CZ-6A DEB

ActiefSSO
NORAD 54513·DEBRIS·🇨🇳 China

Gelanceerd Nov 11, 2022 vanaf Taiyuan Satellite Launch Center

Loading…

Volgende Passages (komende 24 uur)

TLE

VersSource: Space-Track

Epoch: Sep 13, 2026, 06:19 UTC

1 54513U 22151JR  26256.26369707  .00000375  00000-0  11404-3 0  9998
2 54513  98.4811 269.3141 0150191  74.3961 287.3747 14.41503933201345

Volg CZ-6A DEB in realtime met AllMySat

Download on the App Store